Location: Darmstadt
(49.8706°N, 8.6494°E)
Time: 07:33:35
(UTC+01:00)

ARGOS - Pass Details

Date: 31 October 2020
Orbit: 819 x 835 km, 98.4° (Epoch: 03 December)

Event Time Altitude Azimuth Distance (km) Brightness Sun altitude
Exits shadow 18:40:00 19° 120° (ESE) 1,899 4.6 -15.9°
Maximum altitude 18:43:19 37° 64° (ENE) 1,283 3.7 -16.5°
Drops below altitude 10° 18:48:16 10° 359° (N) 2,459 5.6 -17.3°
Sets 18:50:46 0° 351° (N) 3,397 6.4 -17.7°
